{"data":{"norad_id":59504,"epoch":"2026-09-21T05:54:33.880608Z","epoch_age_seconds":100865,"freshness":"FRESH","line1":"1 59504U 24071W   26264.24622547  .00000125  00000+0  14059-4 0  9999","line2":"2 59504  43.0043 323.1128 0001287 260.2549  99.8158 15.27577083138024","mean_motion":15.27577083,"eccentricity":0.0001287,"inclination_deg":43.0043,"raan_deg":323.1128,"arg_perigee_deg":260.2549,"mean_anomaly_deg":99.8158,"bstar":1.4059e-5,"rev_number":13802,"period_min":94.266928721658,"perigee_km":482.17479482624,"apogee_km":483.94086637564,"semimajor_km":6861.1948306009,"source":"CELESTRAK","updated_at":"2026-09-22T09:00:48.961314Z"}}